Location: Diebersbach
(48.5163°N, 8.0558°E)
Time: 15:21:51
(UTC+00:00)

ADEOS II - Visible Passes

Search period start: 23 October 2021 00:00
Search period end: 02 November 2021 00:00
Orbit: 799 x 801 km, 98.6° (Epoch: 22 October)

Date Brightness Start Highest point End Pass type
(mag) Time Alt. Az. Time Alt. Az. Time Alt. Az.
23 Oct 4.4 02:29:25 10° N 02:30:24 15° N 02:30:24 15° N visible
24 Oct 4.6 02:02:37 10° N 02:03:20 14° N 02:03:20 14° N visible
24 Oct 4.4 03:44:10 10° NNW 03:44:15 10° NNW 03:44:15 10° NNW visible
25 Oct 4.9 01:35:59 10° NNE 01:36:16 12° NNE 01:36:16 12° NNE visible
25 Oct 4.3 03:16:36 10° N 03:17:12 12° NNW 03:17:12 12° NNW visible
26 Oct 4.4 02:49:27 10° N 02:50:08 13° N 02:50:08 13° N visible
27 Oct 4.6 02:22:32 10° N 02:23:04 13° N 02:23:04 13° N visible
28 Oct 4.8 01:55:47 10° NNE 01:56:00 11° NNE 01:56:00 11° NNE visible
29 Oct 4.5 03:09:37 10° N 03:09:51 11° N 03:09:51 11° N visible
30 Oct 4.6 02:42:32 10° N 02:42:47 11° N 02:42:47 11° N visible
31 Oct 4.8 02:15:40 10° N 02:15:43 10° N 02:15:43 10° N visible
